Flight Track Log - Related Links

Times and Time Zones

All times are in EDT time to prevent confusion due to time zone crossing. See the N472ER flight status page for this flight to view local times or setup timezone preferences in your user account.

Time Position Orientation Groundspeed Altitude Reporting Facility
EDT Latitude Longitude Course Direction KTS MPH feet Rate Location/Type
Sun 11:14:33 AM 29.1822 -81.0517 37° Northeast 76 87 400  Level Jacksonville Center
Sun 11:15:04 AM 29.1906 -81.0444 37° Northeast 76 87 900 783 Climbing Jacksonville Center
Sun 11:16:05 AM 29.2094 -81.0464 355° North 67 77 1,600 689 Climbing Jacksonville Center
Sun 11:17:06 AM 29.2281 -81.0483 355° North 67 77 2,300 645 Climbing Jacksonville Center
Sun 11:18:06 AM 29.2450 -81.0600 329° Northwest 74 85 2,900 347 Climbing Jacksonville Center
Sun 11:19:07 AM 29.2642 -81.0786 320° Northwest 107 123 3,000 49 Climbing Jacksonville Center
Sun 11:20:08 AM 29.2875 -81.1044 316° Northwest 113 130 3,000  Level Jacksonville Center
Sun 11:21:09 AM 29.3147 -81.1206 333° Northwest 112 129 3,000  Level Jacksonville Center
Sun 11:22:10 AM 29.3442 -81.1319 341° North 107 123 3,000  Level Jacksonville Center
Sun 11:23:10 AM 29.3694 -81.1436 338° Northwest 105 121 3,000 47 Level Jacksonville Center
Sun 11:24:17 AM 29.4028 -81.1525 347° North 104 120 3,100 49 Climbing Jacksonville Center
Sun 11:25:12 AM 29.4303 -81.1614 344° North 105 121 3,100 -52 Level Jacksonville Center
Sun 11:26:13 AM 29.4553 -81.1753 334° Northwest 108 124 3,000 -43 Descending Jacksonville Center
Sun 11:27:31 AM 29.4931 -81.1892 342° North 106 122 3,000 45 Level Jacksonville Center
Sun 11:28:26 AM 29.5203 -81.1981 344° North 108 124 3,100 49 Climbing Jacksonville Center
Sun 11:29:33 AM 29.5497 -81.2094 341° North 108 124 3,100  Level Jacksonville Center
Sun 11:30:15 AM 29.5667 -81.2189 334° Northwest 108 124 3,100 -62 Level Jacksonville Center
Sun 11:31:10 AM 29.5939 -81.2303 340° North 106 122 3,000 -54 Descending Jacksonville Center
Sun 11:32:07 AM 29.6189 -81.2369 347° North 95 109 3,000  Level Jacksonville Center
Sun 11:33:45 AM 29.6611 -81.2697 326° Northwest 113 130 3,000  Level Jacksonville Center
Sun 11:34:40 AM 29.6844 -81.2861 329° Northwest 110 127 3,000  Level Jacksonville Center
Sun 11:35:41 AM 29.7097 -81.3047 327° Northwest 109 125 3,000  Level Jacksonville Center
Sun 11:36:42 AM 29.7411 -81.3114 350° North 103 119 3,000  Level Jacksonville Center
Sun 11:37:49 AM 29.7725 -81.3181 350° North 104 120 3,000  Level Jacksonville Center
Sun 11:38:38 AM 29.7975 -81.3225 351° North 106 122 3,000 -310 Level Jacksonville Center
Sun 11:39:45 AM 29.8286 -81.3125 16° North 115 132 2,400 -469 Descending Jacksonville Center
Sun 11:40:46 AM 29.8558 -81.3025 18° North 103 119 2,000 -246 Descending Jacksonville Center
Sun 11:41:47 AM 29.8828 -81.2875 26° Northeast 106 122 1,900 -246 Descending Jacksonville Center
Sun 11:42:48 AM 29.9033 -81.2681 39° Northeast 105 121 1,500 -393 Descending Jacksonville Center
Sun 11:43:49 AM 29.9267 -81.2892 322° Northwest 109 125 1,100 -393 Descending Jacksonville Center

Login

Don't have an account? Register now (free) for customized features, flight alerts, and more!